Weather History for KGSH - October, 2010

Change the Weather History Date:

Friday, October 15, 2010

  Actual Average Record
Temperature  
Mean Temperature 52 °F -  
Max Temperature 63 °F 63 °F 83 °F (1962)
Min Temperature 41 °F 46 °F 30 °F (1969)
Degree Days  
Heating Degree Days 12    
Growing Degree Days 2 (Base 50)    
Moisture  
Dew Point 40 °F    
Average Humidity 68    
Maximum Humidity 93    
Minimum Humidity 39    
Precipitation  
Precipitation 0.01 in - - ()
Sea Level Pressure  
Sea Level Pressure 29.97 in    
Wind  
Wind Speed 10 mph (NNW)    
Max Wind Speed 17 mph    
Max Gust Speed 22 mph    
Visibility 10 miles    
Events Rain    
Averages and records for this station are not official NWS values.
T = Trace of Precipitation, MM = Missing Value Source: NWS Daily Summary

Daily Weather History Graph

Daily Weather History Graph

Search for Another Location

Airport or City:

Trip Planner

Search our weather history database for the weather conditions in past years. The results will help you decide how hot, cold, wet, or windy it might be!

Date:

Astronomy

Oct. 15, 2010 Rise Set
Actual Time 7:55 AM EDT 7:02 PM EDT
Civil Twilight 7:27 AM EDT 7:29 PM EDT
Nautical Twilight 6:55 AM EDT 8:02 PM EDT
Astronomical Twilight 6:22 AM EDT 8:34 PM EDT
Moon 3:28 PM EDT (10/15) 12:42 AM EDT (10/15)
Length of Visible Light 12h 02m
Length of Day
11h 06m
First Quarter, 57% of the Moon is Illuminated
Oct 15
First Quarter
Oct 22
Full
Oct 30
Last Quarter
Nov 6
New
Nov 13
First Quarter

Hourly Weather History & Observations

Time (EDT) Temp. Windchill Dew Point Humidity Pressure Visibility Wind Dir Wind Speed Gust Speed Precip Events Conditions
12:53 AM 55.0 °F - 37.9 °F 53% 29.78 in 10.0 mi WSW 17.3 mph 21.9 mph 0.01 in Rain Light Rain
1:53 AM 51.1 °F - 43.0 °F 74% 29.75 in 10.0 mi North 8.1 mph - 0.00 in   Overcast
2:53 AM 52.0 °F - 43.0 °F 71% 29.76 in 10.0 mi North 8.1 mph - 0.00 in   Overcast
3:53 AM 48.0 °F - 42.1 °F 80% 29.76 in 10.0 mi NNE 5.8 mph - N/A   Scattered Clouds
4:53 AM 45.0 °F 42.6 °F 41.0 °F 86% 29.79 in 10.0 mi NNW 4.6 mph - N/A   Clear
5:53 AM 46.0 °F 40.2 °F 43.0 °F 89% 29.83 in 10.0 mi North 12.7 mph - N/A   Clear
6:53 AM 44.1 °F 40.1 °F 42.1 °F 93% 29.87 in 10.0 mi NNW 6.9 mph - N/A   Clear
7:53 AM 43.0 °F 39.5 °F 41.0 °F 93% 29.90 in 10.0 mi North 5.8 mph - N/A   Clear
8:53 AM 45.0 °F 41.8 °F 43.0 °F 93% 29.93 in 10.0 mi North 5.8 mph - N/A   Clear
9:53 AM 48.9 °F - 43.0 °F 80% 29.98 in 10.0 mi NNW 6.9 mph - N/A   Clear
10:53 AM 55.0 °F - 42.1 °F 62% 30.00 in 10.0 mi NNE 10.4 mph - N/A   Clear
11:53 AM 57.0 °F - 39.9 °F 53% 30.01 in 10.0 mi North 10.4 mph - N/A   Clear
12:53 PM 59.0 °F - 39.9 °F 49% 30.02 in 10.0 mi North 12.7 mph - N/A   Partly Cloudy
1:53 PM 60.1 °F - 39.9 °F 47% 30.03 in 10.0 mi North 8.1 mph - N/A   Partly Cloudy
2:53 PM 62.1 °F - 37.9 °F 41% 30.03 in 10.0 mi NNW 13.8 mph - N/A   Scattered Clouds
3:53 PM 61.0 °F - 37.9 °F 42% 30.04 in 10.0 mi NW 10.4 mph - N/A   Scattered Clouds
4:53 PM 62.1 °F - 37.0 °F 39% 30.06 in 10.0 mi NNW 11.5 mph 21.9 mph N/A   Mostly Cloudy
5:53 PM 60.1 °F - 37.0 °F 42% 30.07 in 10.0 mi NW 15.0 mph 21.9 mph N/A   Partly Cloudy
6:53 PM 55.9 °F - 37.9 °F 51% 30.09 in 10.0 mi NW 9.2 mph - N/A   Clear
7:53 PM 48.0 °F - 37.0 °F 66% 30.11 in 10.0 mi WNW 6.9 mph - N/A   Clear
8:53 PM 48.0 °F - 39.0 °F 71% 30.12 in 10.0 mi NW 8.1 mph - N/A   Clear
9:53 PM 46.0 °F 42.5 °F 39.9 °F 79% 30.14 in 10.0 mi NW 6.9 mph - N/A   Clear
10:53 PM 46.9 °F - 41.0 °F 80% 30.15 in 10.0 mi Calm Calm - N/A   Clear
11:53 PM 41.0 °F - 39.0 °F 93% 30.15 in 10.0 mi Calm Calm - N/A   Clear